GW1572 Weather Reports


Display with metric or nautical units.
time (UTC)temp
F
wind
direction
speed
MPH
gust
MPH
rain 1hr
in
rain 24hr
in
rain mn
in
humidity
%
barometer
mb
20260903130610 75 154 0.0 0.0 0.00 0.00 0.00 99 1009.4
20260903130019 75 132 0.0 0.0 0.00 0.00 0.00 99 1009.8
20260903125448 74 144 0.0 0.0 0.00 0.00 0.00 99 1009.8
20260903124840 74 143 0.0 0.0 0.00 0.00 0.00 99 1009.8
20260903123623 74 142 0.0 0.0 0.00 0.00 0.00 99 1009.4
20260903123015 74 142 0.0 0.0 0.00 0.00 0.00 99 1009.8
20260903122448 73 142 0.0 0.0 0.00 0.00 0.00 99 1009.4
20260903121846 73 142 0.0 0.0 0.00 0.00 0.00 99 1009.4
20260903121235 73 142 0.0 0.0 0.00 0.00 0.00 99 1009.8
20260903120606 73 142 0.0 0.0 0.00 0.00 0.00 99 1009.4
20260903115439 73 142 0.0 0.0 0.00 0.00 0.00 99 1009.4
20260903114815 73 142 0.0 0.0 0.00 0.00 0.00 99 1009.4
20260903114218 72 142 0.0 0.0 0.00 0.00 0.00 99 1009.4
20260903113613 72 143 0.0 0.0 0.00 0.00 0.00 99 1009.4
20260903113040 72 143 0.0 0.0 0.00 0.00 0.00 99 1009.4
20260903112442 72 142 0.0 0.0 0.00 0.00 0.00 99 1009.4
20260903111840 72 143 0.0 0.0 0.00 0.00 0.00 99 1009.4
20260903111238 72 144 0.0 0.0 0.00 0.00 0.00 99 1009.1
20260903110016 72 143 0.0 0.0 0.00 0.00 0.00 99 1009.1
20260903104807 72 134 0.0 0.0 0.00 0.00 0.00 99 1009.1
20260903103014 72 129 0.0 0.0 0.00 0.00 0.00 99 1008.8
20260903102426 72 140 0.0 0.0 0.00 0.00 0.00 99 1008.8
20260903101226 72 140 0.0 0.0 0.00 0.00 0.00 99 1008.8
20260903100036 72 124 0.0 0.0 0.00 0.00 0.00 99 1008.8
20260903095419 72 136 0.0 0.0 0.00 0.00 0.00 99 1008.8
20260903094811 72 122 0.0 0.0 0.00 0.00 0.00 99 1008.8
20260903093017 72 139 0.0 0.0 0.00 0.00 0.00 99 1008.8
20260903092412 73 138 0.0 0.0 0.00 0.00 0.00 99 1008.8
20260903091837 73 136 0.0 0.0 0.00 0.00 0.00 99 1008.8
20260903091237 73 134 0.0 0.0 0.00 0.00 0.00 99 1008.8
20260903090638 73 134 0.0 0.0 0.00 0.00 0.00 99 1008.8
20260903090044 73 132 0.0 0.0 0.00 0.00 0.00 99 1008.4
20260903085441 73 135 0.0 0.0 0.00 0.00 0.00 99 1008.8
20260903084817 73 135 0.0 0.0 0.00 0.00 0.00 99 1008.8
20260903084237 73 131 0.0 0.0 0.00 0.00 0.00 99 1008.8
20260903083050 73 135 0.0 0.0 0.00 0.00 0.00 99 1008.4
20260903082447 73 135 0.0 0.0 0.00 0.00 0.00 99 1008.4
20260903081849 73 127 0.0 0.0 0.00 0.00 0.00 99 1008.8
20260903081206 73 126 0.0 0.0 0.00 0.00 0.00 99 1008.8
20260903080612 73 141 0.0 0.0 0.00 0.00 0.00 99 1008.4
20260903080026 73 138 0.0 0.0 0.00 0.00 0.00 99 1008.8
20260903075430 74 136 0.0 0.0 0.00 0.00 0.00 99 1008.4
20260903074832 74 133 0.0 0.0 0.00 0.00 0.00 99 1008.4
20260903074223 74 132 0.0 0.0 0.00 0.00 0.00 99 1008.8
20260903073605 74 124 0.0 0.0 0.00 0.00 0.00 99 1008.4
20260903072436 74 124 0.0 0.0 0.00 0.00 0.00 99 1008.4
20260903071845 74 126 0.0 0.0 0.00 0.00 0.00 99 1008.4
20260903071242 74 140 0.0 0.0 0.00 0.00 0.00 99 1008.4
20260903070626 74 138 0.0 0.0 0.00 0.00 0.00 99 1008.4
20260903065443 74 141 0.0 0.0 0.00 0.00 0.00 99 1008.4
20260903064840 74 140 0.0 0.0 0.00 0.00 0.00 99 1008.4
20260903064209 74 142 0.0 0.0 0.00 0.00 0.00 99 1008.4
20260903063612 74 148 0.0 0.0 0.00 0.00 0.00 99 1008.4
20260903063035 74 142 0.0 0.0 0.00 0.00 0.00 99 1008.8
20260903062413 74 150 0.0 0.0 0.00 0.00 0.00 99 1008.8
20260903061826 74 148 0.0 0.0 0.00 0.00 0.00 99 1008.8
20260903061223 75 148 0.0 0.0 0.00 0.00 0.00 99 1008.8
20260903060643 75 146 0.0 0.0 0.00 0.00 0.00 99 1008.4
20260903060022 75 145 0.0 0.0 0.00 0.00 0.00 99 1008.8
20260903055421 75 137 0.0 0.0 0.00 0.00 0.00 99 1008.4
20260903054841 75 143 0.0 0.0 0.00 0.00 0.00 99 1008.8
20260903054241 75 146 0.0 0.0 0.00 0.00 0.00 99 1008.4
20260903053630 75 144 0.0 0.0 0.00 0.00 0.00 99 1008.1
20260903053045 75 138 0.0 0.0 0.00 0.00 0.00 99 1008.4
20260903052414 75 122 0.0 0.0 0.00 0.00 0.00 99 1008.4
20260903051836 75 131 0.0 0.0 0.00 0.00 0.00 99 1008.1
20260903051246 75 140 0.0 0.0 0.00 0.00 0.00 99 1008.4
20260903050044 75 132 0.0 0.0 0.00 0.00 0.00 99 1008.1
20260903045423 75 142 0.0 0.0 0.00 0.00 0.00 99 1008.4
20260903044820 76 132 0.0 0.0 0.00 0.00 0.00 99 1008.1
20260903044241 76 147 0.0 0.0 0.00 0.00 0.00 99 1008.1
20260903043608 76 145 0.0 0.0 0.00 0.00 0.00 99 1007.7
20260903042436 76 139 0.0 0.0 0.00 0.00 0.00 99 1008.1
20260903041809 76 144 0.0 0.0 0.00 0.00 0.00 99 1008.1
20260903040636 76 144 0.0 0.0 0.00 0.00 0.00 99 1008.1
20260903033647 77 141 0.0 0.0 0.00 0.00 0.00 99 1008.8
20260903033021 77 136 0.0 0.0 0.00 0.00 0.00 99 1008.4
20260903032429 77 141 0.0 0.0 0.00 0.00 0.00 99 1008.4
20260903031847 77 135 0.0 0.0 0.00 0.00 0.00 98 1008.4
20260903031227 77 144 0.0 0.0 0.00 0.00 0.00 98 1008.1
20260903030031 77 132 0.0 0.0 0.00 0.00 0.00 98 1008.4
20260903025421 78 121 0.0 0.0 0.00 0.00 0.00 97 1008.4
20260903024819 78 136 0.0 0.0 0.00 0.00 0.00 97 1008.8
20260903024240 78 135 0.0 0.0 0.00 0.00 0.00 97 1008.8
20260903023031 78 124 0.0 0.0 0.00 0.00 0.00 96 1008.4
20260903022413 78 138 0.0 0.0 0.00 0.00 0.00 96 1008.8
20260903021831 78 134 0.0 0.0 0.00 0.00 0.00 96 1008.4
20260903021225 78 147 0.0 0.0 0.00 0.00 0.00 96 1008.4
20260903020614 78 144 0.0 0.0 0.00 0.00 0.00 95 1008.4
20260903020031 78 140 0.0 0.0 0.00 0.00 0.00 95 1008.4
20260903014825 78 137 0.0 0.0 0.00 0.00 0.00 94 1008.1
20260903013041 79 136 0.0 0.0 0.00 0.00 0.00 94 1008.4
20260903012417 79 138 0.0 0.0 0.00 0.00 0.00 94 1008.4
20260903011247 79 131 0.0 0.0 0.00 0.00 0.00 93 1008.4
20260903010631 79 132 0.0 0.0 0.00 0.00 0.00 92 1008.1
20260903010042 80 131 0.0 0.0 0.00 0.00 0.00 92 1008.1
20260903005428 80 132 0.0 0.0 0.00 0.00 0.00 92 1008.1
20260903004849 80 127 0.0 0.0 0.00 0.00 0.00 91 1007.7
20260903004227 80 135 0.0 0.0 0.00 0.00 0.00 91 1008.1
20260903003640 81 124 0.0 0.0 0.00 0.00 0.00 90 1007.7
20260903002418 81 143 0.0 0.0 0.00 0.00 0.00 88 1007.7
20260903001845 82 145 0.0 0.0 0.00 0.00 0.00 88 1007.7
20260903001207 82 136 0.0 0.0 0.00 0.00 0.00 87 1007.7
20260903000622 83 140 0.0 0.0 0.00 0.00 0.00 86 1007.7
20260903000030 84 141 0.0 0.0 0.00 0.00 0.00 83 1007.7
20260902235426 85 136 0.0 0.0 0.00 0.00 0.00 81 1007.7
20260902234827 86 136 0.0 0.0 0.00 0.00 0.00 79 1007.7
20260902234231 87 134 0.0 0.0 0.00 0.00 0.00 77 1007.7
20260902232448 92 151 0.0 0.0 0.00 0.00 0.00 71 1007.7
20260902231807 93 143 0.0 0.0 0.00 0.00 0.00 69 1007.7
20260902230636 94 124 0.0 0.0 0.00 0.00 0.00 67 1007.7
20260902225422 96 147 0.0 0.0 0.00 0.00 0.00 65 1007.7
20260902224832 96 156 0.0 0.0 0.00 0.00 0.00 65 1007.7
20260902224238 97 171 0.0 0.0 0.00 0.00 0.00 65 1007.7
20260902223649 97 148 0.0 0.0 0.00 0.00 0.00 64 1008.1
20260902223034 98 162 0.0 0.0 0.00 0.00 0.00 64 1008.1
20260902222413 97 165 0.0 1.0 0.00 0.00 0.00 65 1008.1
20260902221814 97 196 0.0 0.0 0.00 0.00 0.00 65 1007.7
20260902221219 97 139 0.0 0.0 0.00 0.00 0.00 65 1007.7
20260902220629 98 149 0.0 1.0 0.00 0.00 0.00 64 1008.1
20260902220047 98 182 1.0 1.0 0.00 0.00 0.00 64 1008.1
20260902215407 98 181 0.0 1.0 0.00 0.00 0.00 63 1007.7
20260902214848 98 168 1.0 1.0 0.00 0.00 0.00 64 1007.7
20260902214236 97 143 0.0 1.0 0.00 0.00 0.00 59 1008.1
20260902213633 97 285 2.0 2.0 0.00 0.00 0.00 56 1007.7
20260902213030 99 74 1.0 1.0 0.00 0.00 0.00 56 1008.1
20260902212428 98 318 1.0 1.0 0.00 0.00 0.00 58 1007.7
20260902211842 98 208 1.0 1.0 0.00 0.00 0.00 60 1007.7
20260902210614 98 143 1.0 1.0 0.00 0.00 0.00 55 1007.7
20260902210017 97 68 1.0 2.0 0.00 0.00 0.00 56 1008.1
20260902205407 99 314 1.0 2.0 0.00 0.00 0.00 56 1008.1
20260902204845 100 160 1.0 1.0 0.00 0.00 0.00 56 1008.4
20260902204243 98 157 1.0 2.0 0.00 0.00 0.00 55 1008.4
20260902203641 98 207 1.0 1.0 0.00 0.00 0.00 53 1008.4
20260902203013 97 14 1.0 1.0 0.00 0.00 0.00 55 1008.8
20260902202412 97 73 1.0 1.0 0.00 0.00 0.00 56 1008.4
20260902201809 97 272 2.0 2.0 0.00 0.00 0.00 58 1008.8
20260902201247 99 3 3.0 3.0 0.00 0.00 0.00 54 1008.8
20260902200642 98 123 1.0 1.0 0.00 0.00 0.00 54 1008.8
20260902194813 97 150 2.0 2.0 0.00 0.00 0.00 54 1009.1
20260902194231 98 189 2.0 2.0 0.00 0.00 0.00 58 1009.1
20260902193638 98 142 1.0 1.0 0.00 0.00 0.00 56 1009.1
20260902193024 98 341 2.0 2.0 0.00 0.00 0.00 56 1009.1
20260902192449 98 171 1.0 1.0 0.00 0.00 0.00 58 1009.4
20260902191835 97 259 1.0 1.0 0.00 0.00 0.00 55 1009.1
20260902190627 96 290 2.0 2.0 0.00 0.00 0.00 57 1009.1
20260902190016 97 229 1.0 1.0 0.00 0.00 0.00 58 1009.1
20260902185448 94 277 2.0 2.0 0.00 0.00 0.00 58 1009.1
20260902184841 96 24 2.0 3.0 0.00 0.00 0.00 59 1009.1
20260902183609 95 120 1.0 1.0 0.00 0.00 0.00 63 1009.4
20260902183035 95 328 2.0 2.0 0.00 0.00 0.00 59 1009.4
20260902182443 95 205 1.0 1.0 0.00 0.00 0.00 61 1009.4
20260902181247 94 15 1.0 1.0 0.00 0.00 0.00 59 1009.4
20260902180645 94 353 2.0 3.0 0.00 0.00 0.00 59 1009.4
20260902180012 94 237 4.0 4.0 0.00 0.00 0.00 60 1009.4
20260902175423 94 347 3.0 4.0 0.00 0.00 0.00 63 1009.4
20260902174813 94 55 2.0 3.0 0.00 0.00 0.00 63 1009.8
20260902174234 94 328 2.0 3.0 0.00 0.00 0.00 63 1009.8
20260902173634 94 37 1.0 2.0 0.00 0.00 0.00 64 1009.8
20260902173028 93 63 2.0 3.0 0.00 0.00 0.00 66 1010.1
20260902172444 93 244 2.0 3.0 0.00 0.00 0.00 65 1010.4
20260902171817 93 349 2.0 2.0 0.00 0.00 0.00 65 1010.4
20260902171206 92 259 2.0 3.0 0.00 0.00 0.00 65 1010.4
20260902170647 93 73 1.0 2.0 0.00 0.00 0.00 64 1010.4
20260902170024 93 317 3.0 4.0 0.00 0.00 0.00 67 1010.4
20260902165424 93 209 1.0 1.0 0.00 0.00 0.00 68 1010.4
20260902164207 92 320 2.0 2.0 0.00 0.00 0.00 67 1010.8
20260902163612 93 195 1.0 2.0 0.00 0.00 0.00 70 1010.8
20260902163010 92 151 0.0 1.0 0.00 0.00 0.00 67 1010.8
20260902162424 92 270 0.0 1.0 0.00 0.00 0.00 71 1011.1
20260902161822 92 171 0.0 1.0 0.00 0.00 0.00 69 1011.1
20260902161215 91 173 0.0 1.0 0.00 0.00 0.00 72 1011.1
20260902160043 91 255 2.0 3.0 0.00 0.00 0.00 72 1011.1
20260902155438 90 295 2.0 3.0 0.00 0.00 0.00 74 1011.1
20260902154817 90 282 1.0 2.0 0.00 0.00 0.00 72 1011.1
20260902154230 90 178 2.0 2.0 0.00 0.00 0.00 76 1011.5
20260902153033 89 135 1.0 2.0 0.00 0.00 0.00 74 1011.5
20260902152412 88 88 1.0 1.0 0.00 0.00 0.00 75 1011.1
20260902151838 87 181 1.0 1.0 0.00 0.00 0.00 78 1011.1
20260902150029 85 177 1.0 1.0 0.00 0.00 0.00 84 1011.1
20260902145445 84 178 1.0 1.0 0.00 0.00 0.00 87 1011.1
20260902144233 83 157 1.0 1.0 0.00 0.00 0.00 91 1011.1
20260902143627 82 149 0.0 0.0 0.00 0.00 0.00 93 1010.8
20260902143043 81 135 0.0 0.0 0.00 0.00 0.00 92 1010.8
20260902142438 81 157 0.0 1.0 0.00 0.00 0.00 94 1011.1
20260902141822 81 148 0.0 0.0 0.00 0.00 0.00 96 1010.8
20260902141225 80 153 0.0 0.0 0.00 0.00 0.00 96 1011.1
20260902140643 79 152 0.0 0.0 0.00 0.00 0.00 97 1011.1
20260902140014 78 150 0.0 0.0 0.00 0.00 0.00 98 1011.1
20260902135430 78 154 0.0 0.0 0.00 0.00 0.00 99 1011.1
20260902134845 77 160 0.0 1.0 0.00 0.00 0.00 99 1010.8
20260902134207 76 144 0.0 0.0 0.00 0.00 0.00 99 1011.1
20260902133612 76 149 0.0 0.0 0.00 0.00 0.00 99 1011.1
20260902133016 75 153 1.0 1.0 0.00 0.00 0.00 99 1010.8
20260902132406 75 149 0.0 0.0 0.00 0.00 0.00 99 1011.1
20260902131229 74 152 0.0 0.0 0.00 0.00 0.00 99 1010.8